User: anonymous   Login
Location: Bazugues
(43.4465°N, 0.3432°E)
Time: 14:15:46
(UTC+00:00)
Language:

ARIANE 5 R/B - Orbit

View from above orbital plane
View from above orbital plane
View from above satellite
View from above satellite

Ground track
Ground track

The orbit is defined by the following mean orbital elements,

1 27387U          26067.00108171 +.00000000 +00000-0 +62977-4 0 00004
2 27387  98.8159  82.7707 0033045  65.6727 294.7903 14.36770791    07
Epoch (UTC): 08 March 2026 00:01:33
Eccentricity: 0.0033045
inclination: 98.8159°
perigee height: 746 km
apogee height: 793 km
right ascension of ascending node: 82.7707°
argument of perigee: 65.6727°
revolutions per day: 14.36770791
mean anomaly at epoch: 294.7903°

The dashed part of the orbit path shows where the satellite is in the earth's shadow,  

DLR